Benson, MN

6:29 PM CST on December 15, 2017 (GMT -0600)
Benson Municipal

Weather History for KBBB - November, 2011

Change the Weather History Date:

Monday, November 7, 2011

  Actual Average Record
Temperature  
Mean Temperature 35 °F -  
Max Temperature 46 °F 44 °F 71 °F (1999)
Min Temperature 24 °F 26 °F -5 °F (1991)
Degree Days  
Heating Degree Days 30    
Moisture  
Dew Point 23 °F    
Average Humidity 64    
Maximum Humidity 86    
Minimum Humidity 46    
Precipitation  
Precipitation 0.00 in - - ()
Sea Level Pressure  
Sea Level Pressure 30.12 in    
Wind  
Wind Speed 9 mph (WNW)    
Max Wind Speed 16 mph    
Max Gust Speed 20 mph    
Visibility 10 miles    
Events      
Averages and records for this station are not official NWS values.
T = Trace of Precipitation, MM = Missing Value Source: NWS Daily Summary

Daily Weather History Graph

Daily Weather History Graph

Search for Another Location

Airport or City:

Trip Planner

Search our weather history database for the weather conditions in past years. The results will help you decide how hot, cold, wet, or windy it might be!

Date:

Astronomy

Nov. 07, 2011 Rise Set
Actual Time 7:09 AM CST 5:02 PM CST
Civil Twilight 6:38 AM CST 5:33 PM CST
Nautical Twilight 6:03 AM CST 6:08 PM CST
Astronomical Twilight 5:28 AM CST 6:43 PM CST
Moon 3:18 PM CST (11/7) 4:07 AM CST (11/7)
Length of Visible Light 10h 54m
Length of Day
9h 52m
Waxing Gibbous, 92% of the Moon is Illuminated
Nov 7
Waxing Gibbous
Nov 10
Full
Nov 18
Last Quarter
Nov 25
New
Dec 2
First Quarter

Hourly Weather History & Observations

Time (CST) Temp. Windchill Dew Point Humidity Pressure Visibility Wind Dir Wind Speed Gust Speed Precip Events Conditions
12:12 AM 33.8 °F 26.4 °F 21.2 °F 60% 29.96 in 10.0 mi WSW 9.2 mph - N/A   Clear
12:33 AM 33.8 °F 25.3 °F 21.2 °F 60% 29.96 in 10.0 mi West 11.5 mph - N/A   Clear
12:52 AM 33.8 °F 26.4 °F 19.4 °F 56% 29.96 in 10.0 mi West 9.2 mph - N/A   Clear
1:13 AM 32.0 °F 23.6 °F 19.4 °F 60% 29.97 in 10.0 mi WSW 10.4 mph - N/A   Clear
1:32 AM 33.8 °F 25.8 °F 19.4 °F 56% 29.97 in 10.0 mi West 10.4 mph - N/A   Clear
1:52 AM 30.2 °F 21.9 °F 19.4 °F 64% 29.98 in 10.0 mi West 9.2 mph - N/A   Clear
2:13 AM 30.2 °F 22.6 °F 19.4 °F 64% 29.99 in 10.0 mi West 8.1 mph - N/A   Clear
2:33 AM 28.4 °F 19.7 °F 19.4 °F 69% 30.00 in 10.0 mi West 9.2 mph - N/A   Clear
2:52 AM 30.2 °F 21.3 °F 19.4 °F 64% 30.00 in 10.0 mi West 10.4 mph - N/A   Clear
3:13 AM 30.2 °F 20.8 °F 19.4 °F 64% 30.00 in 10.0 mi WNW 11.5 mph - N/A   Clear
3:32 AM 30.2 °F 21.9 °F 19.4 °F 64% 30.00 in 10.0 mi WNW 9.2 mph - N/A   Clear
3:52 AM 28.4 °F 22.2 °F 19.4 °F 69% 30.02 in 10.0 mi WSW 5.8 mph - N/A   Clear
4:13 AM 28.4 °F - 19.4 °F 69% 30.03 in 10.0 mi Calm Calm - N/A   Clear
4:33 AM 26.6 °F 22.6 °F 17.6 °F 69% 30.04 in 10.0 mi West 3.5 mph - N/A   Clear
4:52 AM 24.8 °F 16.1 °F 17.6 °F 74% 30.04 in 10.0 mi WNW 8.1 mph - N/A   Clear
5:13 AM 24.8 °F 14.6 °F 19.4 °F 80% 30.04 in 10.0 mi WNW 10.4 mph - N/A   Clear
5:32 AM 26.6 °F 17.5 °F 19.4 °F 74% 30.06 in 10.0 mi WNW 9.2 mph - N/A   Clear
5:53 AM 26.6 °F 18.2 °F 21.2 °F 80% 30.07 in 10.0 mi WNW 8.1 mph - N/A   Clear
6:12 AM 26.6 °F 19.1 °F 21.2 °F 80% 30.07 in 10.0 mi WNW 6.9 mph - N/A   Clear
6:32 AM 24.8 °F 16.9 °F 19.4 °F 80% 30.07 in 10.0 mi WNW 6.9 mph - N/A   Clear
6:53 AM 24.8 °F 15.3 °F 19.4 °F 80% 30.09 in 10.0 mi West 9.2 mph - N/A   Clear
7:12 AM 26.6 °F 17.5 °F 21.2 °F 80% 30.10 in 10.0 mi WSW 9.2 mph - N/A   Clear
7:32 AM 26.6 °F 18.2 °F 21.2 °F 80% 30.10 in 10.0 mi West 8.1 mph - N/A   Clear
7:53 AM 28.4 °F 21.2 °F 21.2 °F 74% 30.10 in 10.0 mi West 6.9 mph - N/A   Clear
8:12 AM 30.2 °F 21.9 °F 23.0 °F 75% 30.12 in 10.0 mi West 9.2 mph - N/A   Clear
8:32 AM 33.8 °F 26.4 °F 24.8 °F 70% 30.13 in 10.0 mi West 9.2 mph - N/A   Clear
9:13 AM 35.6 °F 28.6 °F 24.8 °F 65% 30.15 in 10.0 mi West 9.2 mph - N/A   Clear
9:32 AM 35.6 °F 27.5 °F 24.8 °F 65% 30.16 in 10.0 mi West 11.5 mph - N/A   Clear
9:53 AM 37.4 °F 28.5 °F 26.6 °F 65% 30.16 in 10.0 mi WNW 15.0 mph 18.4 mph N/A   Clear
10:12 AM 39.2 °F 31.6 °F 26.6 °F 61% 30.17 in 10.0 mi WNW 12.7 mph - N/A   Clear
10:33 AM 39.2 °F 31.6 °F 26.6 °F 61% 30.18 in 10.0 mi WNW 12.7 mph - N/A   Clear
10:53 AM 41.0 °F 33.9 °F 26.6 °F 57% 30.18 in 10.0 mi NW 12.7 mph - N/A   Clear
11:12 AM 42.8 °F 37.0 °F 26.6 °F 53% 30.18 in 10.0 mi NW 10.4 mph - N/A   Clear
11:33 AM 42.8 °F 36.6 °F 26.6 °F 53% 30.18 in 10.0 mi NW 11.5 mph 17.3 mph N/A   Clear
11:52 AM 42.8 °F 36.2 °F 28.4 °F 57% 30.17 in 10.0 mi NW 12.7 mph 16.1 mph N/A   Clear
12:12 PM 42.8 °F 36.2 °F 28.4 °F 57% 30.17 in 10.0 mi WNW 12.7 mph - N/A   Clear
12:33 PM 44.6 °F 38.4 °F 26.6 °F 49% 30.17 in 10.0 mi WNW 12.7 mph 16.1 mph N/A   Clear
12:52 PM 44.6 °F 40.2 °F 26.6 °F 49% 30.17 in 10.0 mi NW 8.1 mph - N/A   Clear
1:13 PM 44.6 °F 38.8 °F 26.6 °F 49% 30.16 in 10.0 mi NW 11.5 mph - N/A   Clear
1:32 PM 44.6 °F 39.7 °F 26.6 °F 49% 30.16 in 10.0 mi WNW 9.2 mph 17.3 mph N/A   Clear
1:52 PM 46.4 °F 40.4 °F 26.6 °F 46% 30.16 in 10.0 mi West 13.8 mph - N/A   Clear
2:13 PM 46.4 °F 39.8 °F 26.6 °F 46% 30.16 in 10.0 mi WNW 16.1 mph 19.6 mph N/A   Clear
2:33 PM 46.4 °F 41.1 °F 26.6 °F 46% 30.17 in 10.0 mi NW 11.5 mph 18.4 mph N/A   Clear
2:52 PM 46.4 °F 40.1 °F 26.6 °F 46% 30.16 in 10.0 mi WNW 15.0 mph 19.6 mph N/A   Clear
3:13 PM 46.4 °F 40.4 °F 26.6 °F 46% 30.17 in 10.0 mi NW 13.8 mph - N/A   Clear
3:32 PM 46.4 °F 40.7 °F 26.6 °F 46% 30.17 in 10.0 mi NW 12.7 mph 17.3 mph N/A   Clear
3:52 PM 46.4 °F 41.9 °F 26.6 °F 46% 30.18 in 10.0 mi NW 9.2 mph - N/A   Clear
4:13 PM 44.6 °F 40.2 °F 26.6 °F 49% 30.17 in 10.0 mi NNW 8.1 mph - N/A   Clear
4:32 PM 42.8 °F 39.3 °F 26.6 °F 53% 30.18 in 10.0 mi NW 5.8 mph - N/A   Clear
5:13 PM 37.4 °F 34.9 °F 24.8 °F 60% 30.18 in 10.0 mi NNW 3.5 mph - N/A   Clear
5:32 PM 35.6 °F 31.7 °F 24.8 °F 65% 30.20 in 10.0 mi NW 4.6 mph - N/A   Clear
5:52 PM 35.6 °F - 24.8 °F 65% 30.21 in 10.0 mi Calm Calm - N/A   Clear
6:13 PM 35.6 °F - 24.8 °F 65% 30.21 in 10.0 mi Calm Calm - N/A   Clear
6:32 PM 33.8 °F 30.8 °F 24.8 °F 70% 30.21 in 10.0 mi North 3.5 mph - N/A   Clear
6:53 PM 33.8 °F - 24.8 °F 70% 30.21 in 10.0 mi Calm Calm - N/A   Clear
7:13 PM 32.0 °F 28.7 °F 24.8 °F 75% 30.21 in 10.0 mi North 3.5 mph - N/A   Clear
7:32 PM 30.2 °F - 24.8 °F 80% 30.21 in 10.0 mi Calm Calm - N/A   Clear
7:53 PM 32.0 °F - 24.8 °F 75% 30.22 in 10.0 mi Calm Calm - N/A   Clear
8:13 PM 28.4 °F - 24.8 °F 86% 30.21 in 10.0 mi Calm Calm - N/A   Clear
8:32 PM 28.4 °F - 24.8 °F 86% 30.21 in 10.0 mi Calm Calm - N/A   Clear
8:53 PM 28.4 °F - 24.8 °F 86% 30.22 in 10.0 mi Calm Calm - N/A   Clear
9:12 PM 26.6 °F - 23.0 °F 86% 30.21 in 10.0 mi Calm Calm - N/A   Clear
9:33 PM 28.4 °F - 24.8 °F 86% 30.21 in 10.0 mi Calm Calm - N/A   Clear
9:52 PM 26.6 °F - 24.8 °F 93% 30.21 in 10.0 mi Calm Calm - N/A   Clear
10:12 PM 24.8 °F - 21.2 °F 86% 30.21 in 10.0 mi Calm Calm - N/A   Clear
10:33 PM 26.6 °F - 21.2 °F 80% 30.22 in 10.0 mi Calm Calm - N/A   Clear
10:52 PM 24.8 °F - 21.2 °F 86% 30.22 in 10.0 mi Calm Calm - N/A   Clear
11:13 PM 24.8 °F - 21.2 °F 86% 30.21 in 10.0 mi Calm Calm - N/A   Clear
11:33 PM 23.0 °F - 19.4 °F 86% 30.22 in 10.0 mi Calm Calm - N/A   Clear
11:52 PM 24.8 °F - 21.2 °F 86% 30.21 in 10.0 mi Calm Calm - N/A   Clear